INTELSAT 20 (IS-20)

Last updated on Nov. 14, 2019, 4:21 a.m. UTC

1 38740U 12043A   19316.92056407 -.00000011  00000-0  00000+0 0  9997
2 38740   0.0086 263.9571 0002988 278.3739 269.3433  1.00271772 26686
UTC
Height (km)
Latitude
Longitude
Inclination
Orbital Period
UTC large
Height (km)
Speed (km/s)
/
Latitude / Longitude
Inclination (degrees)
Orbital Period (minutes)
Azimuth
Elevation
Range (km)
Doppler Factor
iOS Compass Heading
iOS Angle

Next 30 passes for location: Hong Kong

Rise time Rise Azimuth (degrees) Set time Set Azimuth (degrees) Duration Max altitude (degrees)

No matching passes for this satellites